TimePDT,TemperatureF,Dew PointF,Humidity,Sea Level PressureIn,VisibilityMPH,Wind Direction,Wind SpeedMPH,Gust SpeedMPH,PrecipitationIn,Events,Conditions,WindDirDegrees,DateUTC
12:56 AM,70.9,12.0,10,29.92,10.0,SSW,12.7,-,N/A,,Clear,210,2013-04-28 07:56:00
1:56 AM,68.0,12.0,11,29.91,10.0,SSW,10.4,-,N/A,,Clear,200,2013-04-28 08:56:00
2:56 AM,68.0,12.0,11,29.91,10.0,South,9.2,-,N/A,,Clear,180,2013-04-28 09:56:00
3:56 AM,63.9,13.1,14,29.92,10.0,South,8.1,-,N/A,,Clear,180,2013-04-28 10:56:00
4:56 AM,63.0,16.2,16,29.93,10.0,SSE,9.2,-,N/A,,Clear,160,2013-04-28 11:56:00
5:56 AM,61.0,12.0,15,29.94,10.0,South,6.9,-,N/A,,Clear,190,2013-04-28 12:56:00
6:56 AM,63.9,15.1,15,29.95,10.0,Calm,Calm,-,N/A,,Clear,0,2013-04-28 13:56:00
7:56 AM,72.9,14.0,11,29.95,10.0,Calm,Calm,-,N/A,,Clear,0,2013-04-28 14:56:00
8:56 AM,79.0,14.0,9,29.94,10.0,Calm,Calm,-,N/A,,Clear,0,2013-04-28 15:56:00
9:56 AM,81.9,16.2,9,29.94,10.0,Calm,Calm,-,N/A,,Clear,0,2013-04-28 16:56:00
10:56 AM,84.9,15.1,7,29.93,10.0,Calm,Calm,-,N/A,,Clear,0,2013-04-28 17:56:00
11:56 AM,88.9,14.0,6,29.91,10.0,Variable,4.6,-,N/A,,Clear,0,2013-04-28 18:56:00
12:56 PM,90.0,14.0,6,29.88,10.0,Variable,5.8,-,N/A,,Clear,0,2013-04-28 19:56:00
1:56 PM,92.8,11.1,5,29.85,10.0,Calm,Calm,-,0.00,,Clear,0,2013-04-28 20:56:00
2:56 PM,95.0,12.0,5,29.80,10.0,Variable,6.9,-,N/A,,Clear,0,2013-04-28 21:56:00
3:56 PM,95.0,8.1,4,29.78,10.0,SW,9.2,19.6,N/A,,Clear,230,2013-04-28 22:56:00
4:56 PM,95.0,8.1,4,29.76,10.0,SW,15.0,19.6,N/A,,Clear,230,2013-04-28 23:56:00
5:56 PM,93.9,8.1,4,29.75,10.0,SW,8.1,-,N/A,,Clear,230,2013-04-29 00:56:00
6:56 PM,91.9,12.0,5,29.74,10.0,WSW,6.9,-,N/A,,Clear,250,2013-04-29 01:56:00
7:56 PM,86.9,14.0,7,29.74,10.0,SSW,9.2,-,N/A,,Clear,210,2013-04-29 02:56:00
8:56 PM,81.9,14.0,8,29.75,10.0,SSW,8.1,-,N/A,,Clear,200,2013-04-29 03:56:00
9:56 PM,79.0,13.1,8,29.76,10.0,South,9.2,-,N/A,,Clear,170,2013-04-29 04:56:00
10:56 PM,79.9,14.0,8,29.75,10.0,South,9.2,-,N/A,,Clear,170,2013-04-29 05:56:00
11:56 PM,75.9,13.1,9,29.75,10.0,SW,9.2,-,N/A,,Clear,220,2013-04-29 06:56:00